Baseball 板


LINE

2026 美國職棒例行賽 ▋ 比賽球場 Target Field ▋ 比賽時間 2026.09.01 07:40 底特律老虎 AVG OBP SLG OPS HR RBI SB BB 1.Gleyber Torres (R) 2B .261 .364 .383 .747 8 36 0 46 2.Colt Keith (L) DH .259 .319 .405 .724 9 32 5 28 3.Kevin McGonigle (L) SS .276 .377 .418 .795 14 58 12 81 4.Dillon Dingler (R) C .251 .316 .472 .788 26 82 0 32 5.Brett Callahan (L) LF .259 .300 .481 .781 1 6 0 1 6.Zach McKinstry (L) RF .213 .297 .314 .611 4 26 2 37 7.Spencer Torkelson (R) 1B .220 .312 .403 .715 20 63 0 57 8.Max Clark (L) CF .242 .301 .411 .712 2 13 1 7 9.李灝宇 (R) 3B .266 .312 .411 .723 7 33 2 17 SP.Jackson Jobe (R) 對左打 .227 │ 對右打 .320 G GS IP W L ERA SO BB WHIP 4 4 18.1 1 1 3.93 15 8 1.42 2026賽季成績 明尼蘇達雙城 AVG OBP SLG OPS HR RBI SB BB 1.Luke Keaschall (R) RF .274 .364 .390 .754 9 41 15 49 2.Brooks Lee (S) 3B .248 .300 .439 .739 22 73 7 33 3.Kody Clemens (L) 2B .236 .293 .459 .752 22 67 8 30 4.Ryan Jeffers (R) C .270 .375 .464 .839 10 42 1 40 5.Josh Bell (S) DH .255 .318 .421 .739 17 83 2 42 6.Trevor Larnach (L) LF .266 .348 .424 .772 11 45 2 42 7.Royce Lewis (R) 1B .233 .299 .396 .695 13 46 14 34 8.Kaelen Culpepper (R) SS .313 .365 .478 .843 3 6 0 4 9.Walker Jenkins (L) CF .222 .300 .333 .633 0 1 1 1 SP.Taj Bradley (R) 對左打 .215 │ 對右打 .236 G GS IP W L ERA SO BB WHIP 26 26 147.1 9 6 3.97 169 63 1.28 2026賽季成績 執法裁判│HP: Jeremie Rehak. 1B: Adam Beck. 2B: Dan Iassogna. 3B: Brock Ballou. ────────────────────────────────────── 台灣轉播頻道 開播時間 主播 講評 ELTA體育4台 07:35 原音 MOD/OTT 台灣網路轉播 Vocal: ELTA(原音) ELTA.TV (付費) https://eltaott.tv/ Hami Video (付費) https://hamivideo.hinet.net/ Vocal: MLB.TV(主場/客場) MLB.TV (付費) https://www.mlb.com/tv/g823663/ Gameday - 文字轉播 https://www.mlb.com/gameday/823663/ --



※ 發信站: 批踢踢實業坊(ptt.cc), 來自: 36.229.153.32 (臺灣)
※ 文章網址: https://webptt.com/m.aspx?n=bbs/Baseball/M.1788218823.A.45F.html ※ 編輯: hanksadder (36.229.153.32 臺灣), 09/01/2026 07:27:09
1F:推 samuncle123: 終於不是遇到賽揚獎 加油加油 09/01 07:31
2F:推 lsj049: 李灝宇加油~ 09/01 07:34
3F:推 ilovesola: 加油! 09/01 07:36
4F:推 CaminoI: 加油! 09/01 07:39
5F:推 lsj049: 愛爾達開播~ 09/01 07:40
6F:噓 Eric00132: 體育二台 李政厚出賽 09/01 07:43
7F:推 lsj049: 老虎把John Peck 升上來了 09/01 07:43
8F:→ lsj049: https://i.imgur.com/XrxsWiT.jpeg 09/01 07:43
9F:→ Eric00132: 體育四台 怎麼沒李灝宇的出賽字卡 09/01 07:44
10F:推 Artist: 李打第9棒 成績好像都比較好 今天可以再驗證一下 09/01 07:45
11F:推 CaminoI: John Peck查一下好像二三游都有守 工具人? 09/01 07:50
12F:推 hansvonboltz: 對面也有李 09/01 07:51
13F:推 cubanmesa: 愛爾達:老虎李灝宇<巨人李政後<道奇大谷 09/01 07:54
14F:→ CaminoI: 剛才勇士還有上投手Lee 09/01 07:55
15F:推 rong1994: 老虎這打線真的慘 09/01 07:55
16F:→ x75917x: 老虎打擊真的毫無期待感 09/01 07:57
17F:→ CaminoI: 單看先發個人數據都有兩成以上 好像沒那麼差 但實際上近 09/01 07:57
18F:→ CaminoI: 期整體發揮串連少 09/01 07:57
19F:噓 t340081231: 噓愛爾達記得做李政厚字卡結果沒有李灝宇的字卡 09/01 07:57
20F:→ CaminoI: 和五月時好幾位一成打者狀態 結果差不多 09/01 07:58
21F:推 JackeyChen: 好涼啊 09/01 07:58
22F:→ CaminoI: 有生意 09/01 08:00
23F:推 luyun15: 我開愛爾達看沒字卡還以為今天沒先發= = 09/01 08:02
24F:推 wenhh88: 八字不夠重,打789棒當奇兵就好 09/01 08:04
25F:推 CaminoI: 灝宇已經是今天先發打線打擊率第二高的 僅次於少主 09/01 08:06
26F:推 cubanmesa: 集合 09/01 08:08
27F:推 lsj049: 戰隊集合 09/01 08:08
28F:推 ProducerChen: 集合 09/01 08:08
29F:推 CaminoI: 加油 09/01 08:08
30F:推 JackeyChen: 對面的Lee Np 09/01 08:08
31F:推 Chen96770: 集合 09/01 08:08
32F:→ CaminoI: 三壘的Lee 09/01 08:09
33F:推 freeview: 海 09/01 08:09
34F:→ ProducerChen: 好好選! 09/01 08:09
35F:→ ProducerChen: 今天有兩個三壘李 09/01 08:09
36F:→ lsj049: 怎麼不拍頭 09/01 08:09
37F:→ CaminoI: 應該挑戰的 09/01 08:09
38F:推 hsuaninteen: 挑戰484就BB了 09/01 08:09
39F:→ CaminoI: 本來是連四顆壞球阿 09/01 08:09
40F:→ ProducerChen: 滿 09/01 08:10
41F:→ hanksadder: H 09/01 08:10
42F:推 cubanmesa: H 09/01 08:10
43F:推 Daniel0712: H 09/01 08:10
44F:→ lsj049: HHHH 09/01 08:10
45F:推 crayon1988: 還是穿 09/01 08:10
46F:推 hansvonboltz: 安 09/01 08:10
47F:→ freeview: 這滾動XD 09/01 08:10
48F:→ CaminoI: 安打 這個結果好像比較好 XD 09/01 08:10
49F:推 JackeyChen: 找洞 09/01 08:10
50F:→ ProducerChen: HHHHH 09/01 08:10
51F:推 ele55055: 李很少挑戰 09/01 08:10
52F:推 Franc1224: 舒服 09/01 08:10
53F:推 Axwell: 幸運 09/01 08:10
54F:推 Benbenyale: 安打 09/01 08:10
55F:推 neo74214: 水啦 找洞鑽! 09/01 08:10
56F:推 snoopy63: 水 09/01 08:10
57F:推 rong1994: 安打 09/01 08:10
58F:推 murmur38: 硬是鑽出了內野 09/01 08:10
59F:推 MK47: hhhhhh 09/01 08:10
60F:推 koi33000: 有啦 09/01 08:10
61F:推 as5688ck: 讚讚 09/01 08:10
62F:推 b9441118: 找洞鑽推打安 09/01 08:10
63F:推 kickvsbrad: 安 09/01 08:10
64F:推 hpfan: 水啦 09/01 08:10
65F:推 a0933879446: HHH 09/01 08:10
66F:推 s31127: 安安安安安 09/01 08:10
67F:推 Tonyx599026: 鳥安也是安 舒服 09/01 08:10
68F:推 zerozero8: 鳥穿也是安 讚 09/01 08:10
69F:推 photoB1N: 這也行 算你厲害 09/01 08:10
70F:推 jjooee1428: 爽啦運氣不錯 09/01 08:10
71F:推 sweam: 安打啦! 09/01 08:10
72F:→ CaminoI: 太強勁 第一位攔不下來就沒辦法了 09/01 08:10
73F:推 kevin74105: 超刁鑽安打 09/01 08:10
74F:推 moonzone: H 09/01 08:10
75F:→ hansvonboltz: 94.6mph 09/01 08:10
76F:→ koi33000: 有一球可以挑戰的說 好可惜 不然保送了 09/01 08:11
77F:推 crayon1988: EV94.6mph 09/01 08:11
78F:推 HotGirlBear: 今天老虎第一安 09/01 08:11
79F:推 space20021: 水水水 09/01 08:11
80F:推 yiersan: 猛 09/01 08:11
81F:推 clerkhsiao: 很會找洞鑽 09/01 08:11
82F:→ CaminoI: 貢獻老虎本場第一安 09/01 08:11
83F:推 caeiu: 可惜 09/01 08:11
84F:推 Augustus5: 每日任務又達成啦 09/01 08:11
85F:推 t340081231: 94.6也不算是鳥安了 09/01 08:11
86F:推 Eric00132: 拖天子... 09/01 08:11
87F:推 pipizone: 主審誤判撿到安打XDD 09/01 08:11
88F:推 qoo2002s: 說不定是球隊不想要菜鳥在比賽前段挑戰 09/01 08:11
89F:推 jiaxie: BB沒有,換到Single 09/01 08:11
90F:→ as5688ck: 老虎打了1.5DP 09/01 08:12
91F:→ CaminoI: 不鳥阿 很強勁 是對方野手撲了讓你覺得好像有機會 09/01 08:12
92F:推 ProducerChen: 老虎主播是真的很喜歡他 剛剛那顆運氣超好沒打好還 09/01 08:12
93F:→ ProducerChen: 是穿了 但還是吹XD 09/01 08:12
94F:推 ggdesu: 今天運氣好一點 09/01 08:12
95F:推 JeremyNeil: 讚讚 09/01 08:12
96F:→ CaminoI: 就不是關鍵時刻 也沒必要 09/01 08:12
97F:推 koi33000: 整隊就他安打 吹一下ok 09/01 08:12
98F:推 wouldyou: 讚 每日任務達成 09/01 08:13
99F:推 yiersan: 最近運氣不好 該補了 09/01 08:13
100F:→ CaminoI: 打出老虎目前唯一一安 不吹他吹誰 XD 09/01 08:13
101F:推 myhope203: 被主審搞到一隻安打 09/01 08:13
102F:推 rong1994: 冷胡椒 2b 09/01 08:14
103F:推 jkokpcu: 打地板3個彈跳也能穿越XD 09/01 08:15
104F:推 wumint: 差點被攔到, 一壘有人還是比較容易穿。 09/01 08:15
105F:推 shigeno24: 對欸居然有94麥轉播看起來鳥鳥的 09/01 08:15
106F:推 ericlin5230: 這球用看的真的鳥 09/01 08:16
107F:推 benboy: 彈那麼多次也能穿 是真的夠快吧XD 09/01 08:16
108F:推 CaminoI: 對面的三壘手Lee 09/01 08:16
109F:推 HotGirlBear: 最近很多強擊球進手套,校正回歸一下 09/01 08:17
110F:→ CaminoI: 我們的三壘手Lee發動DP 09/01 08:17
111F:推 wumint: np 09/01 08:17
112F:推 koi33000: 水喔 09/01 08:17
113F:推 rong1994: 帥啊 09/01 08:17
114F:推 ericlin5230: LEE解決LEE 09/01 08:17
115F:推 kevin74105: Lee Dp 09/01 08:17
116F:→ hanksadder: 水喔 09/01 08:17
117F:推 jiaxie: 帥! 09/01 08:17
118F:→ koi33000: 主播又能吹了 09/01 08:17
119F:推 caeiu: Lee DP Lee 09/01 08:17
120F:推 zealotlai274: 有打擊有np 09/01 08:18
121F:推 Mryuan: 還好沒粥 09/01 08:18
122F:推 myfreeday: LEE被LEE雙殺 09/01 08:18
123F:推 neo74214: Lee打給Lee 09/01 08:18
124F:→ murmur38: Lee擊出強勁滾地球 被Lee接到發動雙殺 09/01 08:18
125F:→ Mrlegend: McG又快又準 09/01 08:19
126F:推 Jimimy: 美國這些姓Lee的祖先是怎麼有這個姓的阿? 09/01 08:20
127F:推 CaminoI: 5K 09/01 08:21
128F:推 t340081231: Keith最近真的有夠涼 09/01 08:21
129F:→ Jimimy: Keith最近真的有點慘 09/01 08:21
130F:推 CaminoI: Lee是英語原本就有的姓氏 09/01 08:22
131F:→ Jimimy: 外野手記錯出局數 09/01 08:23
132F:→ CaminoI: 源自古英語 所以看到是白人居多 09/01 08:23
133F:推 myfreeday: 毫無招架之力耶 09/01 08:24
134F:推 t340081231: 老虎這條打線ops看起來都不錯 怎麼這麼涼 09/01 08:24
135F:推 freeview: 這打線還沒從道奇戰走出來嗎 09/01 08:26
136F:推 a27783322: 老虎最近是啥情況== 也太烙賽 09/01 08:27
137F:推 CaminoI: 炸裂…… 09/01 08:27
138F:→ hanksadder: 炸 09/01 08:27
139F:推 kevin74105: 真大號 09/01 08:27
140F:推 caeiu: 炸了 09/01 08:27
141F:→ caeiu: 不知道Riley Greene回來會不會好一點 09/01 08:27
142F:推 CRonaldo07: 李不輸對面第一輪大物的Lee 09/01 08:27
143F:→ CaminoI: 狂換代打就會讓個人數據不致於跌太多 09/01 08:27
144F:推 FAYeeeeeeee: 兩邊三壘手同姓 09/01 08:29
145F:推 CaminoI: 這個看起來有機會守下的 少主…… 09/01 08:33
146F:推 gh2480f0210: 二壘手在搞吧 09/01 08:33
147F:推 koi33000: 少主累了? 09/01 08:33
148F:推 rong1994: 少主怎麼最近守備也是有點怪怪的 09/01 08:34
149F:推 freeview: 算了 反正進季後賽的機會跟沒有了一樣 就當是打身價了 09/01 08:35
150F:推 hanx5566: 大聯盟守備???? 09/01 08:35
151F:推 jiaxie: 一搞再搞 09/01 08:35
152F:推 CaminoI: 這個看起來有機會接的說 一直煮粥 09/01 08:35
153F:→ benrun: 這局守備.. 09/01 08:35
154F:推 Mryuan: 少煮粥 09/01 08:35
155F:推 koi33000: ??? 09/01 08:36
156F:推 kevin74105: 好大一鍋粥 09/01 08:36
157F:→ hanx5566: 這接球難度在哪,CPBL都不會發生 09/01 08:36
158F:推 a0561349: 這能漏阿 09/01 08:36
159F:推 pai0306: 什麼鬼 09/01 08:36
160F:→ klwcoco: 說李灝宇防守爛的看看這2游 爛的有剩 09/01 08:36
161F:→ CaminoI: 我以為在看台鋼比賽 (X) 09/01 08:36
162F:→ hanx5566: 也不是傳在地上為什麼能接不住 09/01 08:36
163F:→ jiaxie: 這次能dp嗎,科科 09/01 08:36
164F:推 kickvsbrad: 這球算失誤嗎 09/01 08:36
165F:→ CaminoI: 但少主是隊上打擊率最高 叫他用棒子道歉吧 09/01 08:37
166F:推 a24862684: 守備比中職還爛 09/01 08:37
167F:→ jiaxie: 投手應該心裡抹爽 09/01 08:37
168F:→ benrun: 還好下莊 09/01 08:38
169F:推 mike13112: 投手有夠扛 09/01 08:38
170F:推 JeremyNeil: 這樣投手還是蠻屌的 09/01 08:38
171F:推 CaminoI: 被記安打阿 投手真衰 09/01 08:39
172F:推 mp5good: 失誤難免吧控制好數量就好 09/01 08:40
173F:推 CaminoI: 老虎第二隻安打出現 McK 09/01 08:41
174F:推 koi33000: 這局有機會上嗎 09/01 08:42
175F:推 CaminoI: 應該把灝宇和脫殼棒次調換的 09/01 08:44
176F:推 rong1994: 欸欸欸再上壘一個拜託 09/01 08:44
177F:→ CaminoI: 真的好涼 這樣打擊根本無法串連 09/01 08:44
178F:→ rong1994: … 09/01 08:45
179F:→ allenbaba: 又 打不到 壘上有人 09/01 08:45
180F:推 koi33000: 沒機會 09/01 08:45
181F:→ hanksadder: GG 又要下一局了... 09/01 08:45
182F:推 neo74214: 打線真的很悲劇 09/01 08:45
183F:→ kevin74105: 慘 都不給李打點集會 09/01 08:45
184F:推 myfreeday: 超人一球死 09/01 08:45
185F:→ koi33000: 最近都沒打點 09/01 08:45
186F:推 bingreen: 老虎打線怎麼有點弱= = 09/01 08:46
187F:推 mp5good: max clark揮第一球自殺 09/01 08:46
188F:推 CaminoI: 灝宇也…… 09/01 08:47
189F:推 TRosenthal: …. 09/01 08:47
190F:推 sharrys: 李失誤 09/01 08:47
191F:→ TRosenthal: 守備啊 09/01 08:47
192F:推 myfreeday: 靠 09/01 08:47
193F:→ hansvonboltz: .... 09/01 08:47
194F:→ Mryuan: 蒸丸 09/01 08:47
195F:推 photoB1N: 完蛋 09/01 08:47
196F:推 neo74214: E 09/01 08:47
197F:推 marx93521: E 09/01 08:47
198F:推 iamzara: 這守備... 09/01 08:47
199F:推 caeiu: 醜了 09/01 08:47
200F:推 leo79415: 你們還敢笑少主阿 迴力鏢不就來了 笑死 09/01 08:48
201F:推 mp5good: 好e 09/01 08:48
202F:推 JeremyNeil: ......今天大家是怎樣 09/01 08:48
203F:→ CaminoI: 底特律台鋼是不是?一直粥 09/01 08:48
204F:→ MK47: ...... 09/01 08:48
205F:推 rong1994: 完蛋了 09/01 08:48
206F:→ marx93521: 守備再加油吧 09/01 08:48
207F:→ Mrlegend: 乾 09/01 08:48
208F:推 jiaxie: 李守備還是... 09/01 08:48
209F:→ CaminoI: 少主是拿大約的阿 09/01 08:48
210F:推 kevin74105: 太燙了 09/01 08:48
211F:推 koi33000: 今天球很燙? 09/01 08:48
212F:推 freeview: 投手滿命苦的 09/01 08:48
213F:推 zzz753951753: 心不在焉是不是 09/01 08:48
214F:→ jiaxie: 近三場守備都有這樣的球 09/01 08:49
215F:推 HotGirlBear: 投手快抓狂了吧 09/01 08:49
216F:→ rong1994: 對面的Lee好猛 22轟 09/01 08:49
217F:推 Mryuan: 總之 太急 09/01 08:49
218F:推 Mrlegend: 等等打擊來一隻道歉一下 09/01 08:50
219F:推 koi33000: 灝宇不想讓少主孤單 一起e 09/01 08:51
220F:推 CaminoI: 少主 你好歹要接到球阿…… 09/01 08:52
221F:推 jiaxie: 手套真的接不住球 09/01 08:52
222F:推 Mryuan: 還好少煮搶鏡 09/01 08:52
223F:推 Marshalkobe2: 老虎的防守真的超好笑 09/01 08:52
224F:→ Mryuan: 又來XD 09/01 08:52
225F:推 koi33000: 差點出事 09/01 08:52
226F:→ CaminoI: 這兩位剛好是老虎打擊率一二名的 09/01 08:53
227F:推 zzz753951753: 跑者好帥 09/01 08:53
228F:推 wumint: 老虎今天球很燙 09/01 08:53
229F:→ CaminoI: 釘子John Peck:我準備好了 09/01 08:54
230F:推 rong1994: 老虎野手滿滿的(打擊)天賦 09/01 08:54
231F:推 JeremyNeil: 二壘跳來跳去看投手沒有 09/01 08:55
232F:→ CaminoI: McK上局也是有隱形失誤 軟弱球沒接到變安打 09/01 08:55
233F:推 jiaxie: 12球了 09/01 08:55
234F:→ CaminoI: BB Jobe心裡苦 09/01 08:55
235F:→ kevin74105: 守備搞死投手了 09/01 08:56
236F:推 CaminoI: 三分砲 09/01 08:57
237F:→ hansvonboltz: 買單 09/01 08:57
238F:推 hanx5566: 被懲罰了 09/01 08:57
239F:→ hanksadder: 炸 09/01 08:57
240F:推 rong1994: 崩了 09/01 08:58
241F:→ kevin74105: 乾出大事了 09/01 08:58
242F:推 myfreeday: 去了 09/01 08:58
243F:→ hanksadder: Jeffers 三分砲 09/01 08:58
244F:推 neo74214: 買單 09/01 08:58
245F:推 wumint: 失誤傷害到了! 09/01 08:58
246F:推 JeremyNeil: 投手快吐了 09/01 08:59
247F:推 riya: 這些怪物打97mile高球跟吃飯喝水一樣 09/01 08:59
248F:推 Mryuan: 苦情投手 09/01 08:59
249F:推 a27783322: 前少主完全爆炸 09/01 08:59
250F:→ Mrlegend: 四番就是猛 09/01 08:59
251F:推 kouhei: 這就是棒球你怎麼能不愛他 09/01 08:59
252F:推 bluehttp: 七月猛虎 八月變病貓 09/01 09:00
253F:推 a27783322: 看起來很不爽 09/01 09:02
254F:推 josh861010: 投手投到快哭出來 09/01 09:02
255F:推 as5688ck: 人還是要靠自己 09/01 09:03
256F:推 Mryuan: 集合 09/01 09:04
257F:推 seven782: 炸 09/01 09:04
258F:推 neyothen: 炸 09/01 09:04
259F:推 CaminoI: 炸裂啦 09/01 09:04
260F:推 inschool: 777777777777777 09/01 09:05
261F:推 hansvonboltz: 道歉野球 09/01 09:05
262F:推 leo79415: 用棒子道歉一下 QQ 09/01 09:05
263F:推 photoB1N: 77777 09/01 09:05
264F:推 a27783322: 哇操 炸 09/01 09:05
265F:推 jiaxie: 李炸裂啦 09/01 09:05
266F:推 LogDee: 炸裂! 09/01 09:05
267F:→ Mryuan: 炸 09/01 09:05
268F:推 cat110211: 道歉 09/01 09:05
269F:推 arrc21: 炸 09/01 09:05
270F:推 koi33000: 道歉啦 09/01 09:05
271F:推 zealotlai274: 可惜不是上ㄧ局 09/01 09:05
272F:→ hanksadder: 炸!!! 09/01 09:05
273F:推 xul4rmpcl4: 炸 09/01 09:05
274F:推 neo74214: 爽啦!!! 09/01 09:05
275F:推 amo2021: 炸裂! 09/01 09:05
276F:推 a23644910: 確信步 09/01 09:05
277F:推 qsc115: 道歉野球 09/01 09:05
278F:推 htckenny: 可惜不是上半局 09/01 09:05
279F:→ rong1994: 帥啊老李 09/01 09:05
280F:推 caeiu: 對自己太氣了 先轟一發 09/01 09:05
281F:→ CaminoI: 剛才如果排七棒 就業滷蛋了 09/01 09:05
282F:推 mole1224: 好了 還你一分 道歉野球 09/01 09:05
283F:推 Mrlegend: 真的道歉了 09/01 09:05
284F:推 jammes: 道歉野球 09/01 09:05
285F:推 l5i9hbba: 道歉野球 自己丟的一分幫忙還 09/01 09:05
286F:→ a27783322: 逮到肉包 水 09/01 09:05
287F:推 mp5good: 炸炸炸 09/01 09:05
288F:推 v11nce1217: 笑死 真的帶棒子上去守備 猛 09/01 09:05
289F:→ leo79415: 連投紅中進來 真是把我李看沒有 09/01 09:05
290F:推 signm: 媽的,真的好強 09/01 09:05
291F:→ CaminoI: 就「有」 09/01 09:05
292F:推 moonzone: 道歉了 09/01 09:05
293F:→ kaiic: 跟到啦 確信步 09/01 09:05
294F:推 singindream: 讚到不行!!! 09/01 09:05
295F:推 as5688ck: 李道歉一次 換少主了嗎 09/01 09:05
296F:→ mp5good: 道歉野球 09/01 09:05
297F:推 Wwc0130: 舒服 剛開就看到了確信步 09/01 09:05
298F:推 thirtyto: 紅中 炸 09/01 09:05
299F:推 gn7722: 整個確信步,超帥 09/01 09:05
300F:推 hpfan: 道歉野球還確信步!帥慘了! 09/01 09:05
301F:→ Jason1623: 一分還一分 09/01 09:05
302F:推 Ommmmmm5566: 打道奇太悶了 09/01 09:05
303F:推 sky71030706: 被前面那個自殺棒害死 09/01 09:06
304F:推 wouldyou: 道歉野球 雞皮疙瘩 09/01 09:06
305F:推 Marshalkobe2: 他算丟三分 還欠兩分 09/01 09:06
306F:→ Mryuan: ————-超級兇————- 09/01 09:06
307F:推 JeremyNeil: 道歉Leeeeeeeeee 09/01 09:06
308F:推 wumint: 今天雙響才能道歉 09/01 09:06
309F:推 KansasMay: 爽啦 09/01 09:06
310F:推 ykd: 道歉炸裂 09/01 09:06
311F:→ Mrlegend: 算利息的話還欠一隻滿貫 09/01 09:07
312F:推 l5i9hbba: 這一發439 也是有夠遠 09/01 09:07
313F:→ koi33000: 不過李真的客場比較會打 09/01 09:07
314F:推 bluehttp: 可惜沒人在壘 09/01 09:07
315F:推 Jimimy: 也不能這樣算拉 後面有個保送 09/01 09:07
316F:推 yiersan: 爽 09/01 09:07
317F:推 leo79415: 這球初速109mhp 拋瓦真是誇張 09/01 09:07
318F:推 gn7722: 擊球初速109.6 09/01 09:07
319F:→ l5i9hbba: Jobe後面自己還保送 有這樣算的= =? 09/01 09:07
320F:推 rong1994: 只能說Hinch這個排棒次還是神人一個 左右病也不看數據 09/01 09:07
321F:→ gn7722: 我要是教練看到他每次的擊球初速口水早流下來了 09/01 09:08
322F:推 tinlover227: 拜託再來一隻 09/01 09:08
323F:→ gn7722: 李灝宇失誤也就是變成一壘有人而已 09/01 09:08
324F:→ gn7722: 哪那麼嚴重 09/01 09:08
325F:推 zzz753951753: 李的打擊排到9棒真的呵呵 09/01 09:08
326F:→ gn7722: 投手自己問題 09/01 09:08
327F:推 Marshalkobe2: 李的確信步很帥 真的很像中南美洲的強打 09/01 09:08
328F:→ CaminoI: 老虎球場特性 全壘打球不容易出去 09/01 09:08
329F:→ leo79415: 輪到少主道歉 09/01 09:08
330F:→ Jimimy: 李變起爆劑了 09/01 09:08
331F:→ rong1994: 明明打右就比較好 近況擊球也都很紮實選球好 偏要擺9 09/01 09:09
332F:推 jiaxie: 老虎反攻來囉 09/01 09:09
333F:推 mp5good: 少主也道歉一顆吧 09/01 09:09
334F:推 kevin74105: 李在後面棒次真的打比較好 很玄 09/01 09:09
335F:→ CaminoI: 虎迷幻視胖卡布 www 09/01 09:09
336F:推 neo74214: 我不懂為什麼愛爾達中文轉播不是播這場… 09/01 09:09
337F:→ CaminoI: 少主道歉失敗 09/01 09:09
338F:推 KansasMay: 少主GG 09/01 09:09
339F:→ Marshalkobe2: 差點 09/01 09:09
340F:→ neo74214: 靠杯 好可惜 09/01 09:10
341F:→ Jimimy: 差點再道歉一次 09/01 09:10
342F:推 l5i9hbba: 少主差一點 09/01 09:10
343F:→ rong1994: 不過也可能投手壘上沒人對後段棒次心態也有差啦 09/01 09:10
344F:推 Mryuan: 差一點道歉 09/01 09:10
345F:推 koi33000: 少主可惜 09/01 09:10
346F:→ mp5good: 打得不錯啦差一點 09/01 09:10
347F:推 Mrlegend: 叮哥可以嗎 09/01 09:10
348F:→ neo74214: 你他媽… 09/01 09:11
349F:推 fs1uc01s21: 慘 09/01 09:11
350F:→ koi33000: 丁哥… 09/01 09:11
351F:推 JeremyNeil: ....丁哥你他嗎 09/01 09:11
352F:推 HotGirlBear: 要打擊有棒子,要守備還是有棒子,MLB要的類型XD 09/01 09:11
353F:→ mp5good: 老虎打線真的... 09/01 09:11
354F:→ Mryuan: 可惜不是李 壓棒到最後 09/01 09:11
355F:推 samyou: 慘 09/01 09:11
356F:推 Marshalkobe2: 又沒了 真鳥 09/01 09:11
357F:推 jiaxie: 慘 dp 沒再追分 09/01 09:11
358F:推 xx820110: 丁哥你… 09/01 09:11
359F:→ myfreeday: 丁哥..... 09/01 09:11
360F:推 a27783322: == 不是跟我說要反攻了 09/01 09:11
361F:→ hanksadder: 0.0 09/01 09:11
362F:→ rong1994: 好不連貫的打線 09/01 09:11
363F:推 wumint: 灝宇放4棒就好了! 09/01 09:11
364F:推 l5i9hbba: 李剛那一發揮棒速度80mph 超扯 09/01 09:11
365F:推 zzz753951753: 關電視,爛透了 09/01 09:11
366F:推 sky71030706: 我看起來是dp還沒打完就dp 了 09/01 09:11
367F:→ GIGAADSL: 丁哥 可惜 09/01 09:12
368F:推 Jimimy: 話說這個確信步 下一個打席不會被砸吧 有些投手很敏感的 09/01 09:12
369F:推 asutoranakan: 對李灝宇丟紅中,是失投還是投手瞧不起人啊.... 09/01 09:13
370F:推 CaminoI: 瘋狂重播全壘打 XD 09/01 09:13
371F:推 s93310034: 改成高抬腿 整個揮棒變快了? 09/01 09:13
372F:推 stilu: 結果只拿hr那一分= = 09/01 09:13
373F:推 leo79415: 對面轟好幾發也確性步丟棒沒在客氣的阿 沒在看喔 09/01 09:13
374F:推 chargebro: 打到誰的毛巾 09/01 09:13
375F:→ CaminoI: 只有毛巾受傷 人沒事 XD 09/01 09:13
376F:推 rong1994: 有夠帥的這個確信步 09/01 09:13
377F:推 koi33000: 怎麼打出去的臉感覺沒有很爽XD 09/01 09:13
378F:→ wumint: 僅管是右投,全隊4安,李雙安一轟,不該放9棒啊! 09/01 09:13
379F:→ CaminoI: 因為前面沒人阿 09/01 09:14
380F:→ leo79415: 大概是李打後段棒次成績比較好才放的 09/01 09:14
381F:→ CaminoI: 比數落後 才追一分而已 09/01 09:14
382F:→ koi33000: 打最好好像是第六棒 09/01 09:14
383F:推 asutoranakan: 贏太多,投手隨便丟 09/01 09:14
384F:→ CaminoI: 這樣說也不合理 之前放二棒也有和少主連線 09/01 09:14
385F:→ asutoranakan: 但老虎最近的確滿貧打的 09/01 09:15
386F:→ koi33000: 9的好處可能是可以串前段棒次吧 09/01 09:15
387F:→ CaminoI: 說對道奇沒打好 但整隊都涼阿 09/01 09:15
388F:→ CaminoI: 投手你自己吞了吧 09/01 09:16
389F:推 Mrlegend: 傻眼 09/01 09:16
390F:推 Jimimy: 原來一壘指導教練是Sizemore 09/01 09:17
391F:推 marx93521: 老虎的守備…… 09/01 09:17
392F:推 s93310034: 九棒很好啊 壓力小 對手會小看你 投紅中給你 09/01 09:18
393F:→ Jimimy: 這投手投本壘和一壘都不準 09/01 09:18
394F:→ CaminoI: 排九棒 但打擊率隊上第二 也不可能多大意吧 09/01 09:19
395F:推 rong1994: 站在球隊得分角度來看不該擺9 但對李來說擺9確實是不錯 09/01 09:19
396F:→ rong1994: 啦 壓力小投手也比較容易心態鬆懈 09/01 09:19
397F:推 neyothen: 放火牛棚 一堆壞球 09/01 09:19
398F:推 myfreeday: 太狂野了 09/01 09:19
399F:推 Jimimy: 這控球..... 09/01 09:20
400F:推 l5i9hbba: 現在都會有球探報告 灝宇的情報 怎麼可能會因為9棒就大 09/01 09:20
401F:→ l5i9hbba: 意.. 09/01 09:20
402F:→ rong1994: 不過每一場都少打一次也蠻虧的 09/01 09:20
403F:推 jiaxie: BB堆滿壘 09/01 09:20
404F:推 Marshalkobe2: 這是鬼牛棚笑死 09/01 09:20
405F:→ chargebro: 超接近 09/01 09:20
406F:推 Loveis5566: Sizemore好熟悉的名字 09/01 09:20
407F:→ Marshalkobe2: 觀眾上去投還比較準 09/01 09:20
408F:→ Jimimy: 怎麼感覺這場會魯閣 09/01 09:21
409F:→ chargebro: 互相挑戰失敗 09/01 09:21
410F:推 foxey: 主審鷹眼 09/01 09:21
411F:推 neyothen: 炸開 慘 09/01 09:21
412F:推 PPTenshi: 炸開囉 09/01 09:21
413F:推 rong1994: 神人牛棚 09/01 09:22
414F:推 myfreeday: 顆顆這場GG了 09/01 09:22
415F:推 CaminoI: 慘 09/01 09:22
416F:推 inschool: 喵 09/01 09:22
417F:→ saffron27: 換了一個更爛的 09/01 09:22
418F:→ hanksadder: 一棒清壘 要走遠囉 09/01 09:22
419F:推 leo79415: 對面李也發威了 09/01 09:22
420F:推 koi33000: 清壘了 09/01 09:22
421F:推 jiaxie: 清光光 09/01 09:22
422F:推 thirtyto: 投了幾個好球 到底 09/01 09:22
423F:→ powerman100: 老虎下課了…… 09/01 09:22
424F:→ CaminoI: 重點是少打一次很虧 往前段集中串連比較實在 09/01 09:22
425F:→ PPTenshi: 沒有Jake Rogers了 野手還有誰能上來丟的 ZMac? 09/01 09:22
426F:推 MK47: 沒差啦 專心看李就好了 09/01 09:23
427F:推 keltt: 一壘安打清壘 09/01 09:23
428F:→ CaminoI: 看板凳還有誰吧 差8分就能上野手了 09/01 09:23
429F:推 a27783322: lol 老虎可以專心練兵了 今年涼了 09/01 09:24
430F:→ PPTenshi: 自從被白襪橫掃以後就崩了 09/01 09:24
431F:→ lsj049: 李灝宇會不會被叫上去投球啊www 09/01 09:24
432F:→ CaminoI: 4安1分 v.s. 7安8分 哈哈 09/01 09:24
433F:→ CaminoI: 就退回到五月的老虎阿 09/01 09:25
434F:推 shigeno24: 守備變-11了 怎麼漲這麼快 09/01 09:27
435F:→ McRay: 被打成北美軟喵 09/01 09:29
436F:→ kevin74105: 要出大事了 準備堆壘包換LEE 09/01 09:30
437F:推 rong1994: 拜託 讓李上來清壘 09/01 09:31
438F:推 leo79415: 李上來滿貫一發 09/01 09:31
439F:推 CaminoI: 老虎X小編好像罷工 最新貼文停在灝宇製造DP 全壘打也沒貼 09/01 09:32
440F:推 jiaxie: 不介意塞滿壘 09/01 09:32
441F:→ rong1994: 感覺對李八成會換投 09/01 09:32
442F:→ CaminoI: 來了 09/01 09:32
443F:推 hpfan: 加油 09/01 09:32
444F:推 inschool: 衝阿 09/01 09:32
445F:推 zealotlai274: 有滷蛋 09/01 09:32
446F:推 cubanmesa: 集合 09/01 09:33
447F:推 Mryuan: 集合 09/01 09:33
448F:推 f8806kimo: 來囉來囉 09/01 09:33
449F:推 pandergast: 再來一發 09/01 09:33
450F:推 shigeno24: 2出局得點圈的Lee來了 09/01 09:33
451F:推 jerrychien06: 在道歉一發吧 09/01 09:33
452F:→ rong1994: 沒換 領先太多 09/01 09:33
453F:推 PPTenshi: 敢不敢再一支 09/01 09:33
454F:推 neyothen: 太急了 09/01 09:33
455F:→ jerrychien06: 可惜啊 第一球好甜 09/01 09:33
456F:→ zealotlai274: 猜錯啦 09/01 09:33
457F:→ CaminoI: 冷靜阿 不要被騙到 09/01 09:33
458F:推 SphereDavid: 再一隻嗎 09/01 09:33
459F:推 woddy: 集合 09/01 09:33
460F:→ zealotlai274: 100 09/01 09:33
461F:→ CaminoI: 100四縫選掉 09/01 09:34
462F:推 jun10: 敢不敢雙響 09/01 09:34
463F:→ CaminoI: 應該說破壞 09/01 09:34
464F:推 Axwell: 選 09/01 09:34
465F:→ jerrychien06: 100能碰掉 09/01 09:34
466F:→ Axwell: 選真好 09/01 09:34
467F:推 wumint: 越投越快! 09/01 09:34
468F:推 neyothen: 太高了吧被K 09/01 09:34
469F:推 CaminoI: 不 09/01 09:34
470F:→ zealotlai274: 還是上當了 09/01 09:35
471F:→ Axwell: 投手真猛 09/01 09:35
472F:推 foxey: 啊 被HFB騙了 09/01 09:35
473F:推 rong1994: 高球 哭啊 09/01 09:35
474F:→ ohya111326: K 09/01 09:35
475F:推 Jimimy: 高球還是忍不住 09/01 09:35
476F:推 chargebro: 100多球還可以100mile 09/01 09:35
477F:→ Axwell: 破百球還能投百mph 09/01 09:35
478F:推 PPTenshi: 被復仇了 09/01 09:35
479F:推 hpfan: 哭 09/01 09:35
480F:推 beauman002: 100球100mph 09/01 09:35
481F:推 a27783322: 100麥太狠了 09/01 09:35
482F:推 Roken241225: 這球太猛 沒話說 09/01 09:35
483F:→ CaminoI: 100M還是太兇了 09/01 09:35
484F:→ rong1994: 100麥 怪物啊 09/01 09:35
485F:推 jttrumx: 100上竄的真難選 09/01 09:35
486F:→ jerrychien06: 這種球很難忍住 第一球很甜沒打可惜 09/01 09:35
487F:→ CaminoI: 覺得有刻意對灝宇催球速 09/01 09:35
488F:推 Wwc0130: 可惜了 第一球沒揮 09/01 09:35
489F:推 mp5good: 好猛 09/01 09:35
490F:推 evil4422: 很猛這球 看來李很想再尻一隻 09/01 09:35
491F:推 samuncle123: 高球100麥 這被三振認了 09/01 09:36
492F:→ rong1994: 阿就下班最後一球了當然用力催 09/01 09:36
493F:推 leo79415: 至少這打席沒再小看李了 09/01 09:36
494F:→ Jimimy: 因為應該投完他就要下了 09/01 09:36
495F:→ Roken241225: 這打擊能攻擊的球只有第一球 而且也是偏內角 09/01 09:36
496F:推 shigeno24: 丟在那個位置100麥IVB20 應該沒人揮得到 09/01 09:36
497F:→ Jimimy: 第一球如果打定主意要打對投手也蠻危險的 09/01 09:36
498F:→ evil4422: 第一球比較可惜 09/01 09:36
499F:推 l5i9hbba: 可惜 第一球壓線100能破壞如果是之前大概就擦棒被捕了 09/01 09:37
500F:推 lsj049: 剛剛選球再嚴謹一點就BB了 09/01 09:38
501F:→ lsj049: 可惜 09/01 09:38
502F:推 CaminoI: 第一球是最好的機會 但可能也打不遠 09/01 09:38
503F:→ CaminoI: 炸裂輕輕鬆鬆 09/01 09:39
504F:推 beauman002: 快魯閣了 09/01 09:39
505F:推 PPTenshi: 準備魯閣囉 09/01 09:39
506F:→ lsj049: 下局大概要看到野手投球了 09/01 09:39
507F:推 marx93521: 慘啊老虎 09/01 09:39
508F:推 moonzone: 丸子 09/01 09:39
509F:推 gn7722: 腫麼被k惹 09/01 09:39
510F:推 Marshalkobe2: 李要上來投嗎 09/01 09:42
511F:推 signm: 全隊只剩李還醒著 09/01 09:45
512F:推 gn7722: 老虎涼打線,李灝宇應該是下班了 09/01 09:45
513F:→ gn7722: 老虎新秀大物打擊率持續探底 09/01 09:46
514F:推 tnl0716: 前一打席被確信步 投手也想討回來吧 認真催球速 09/01 09:47
515F:推 andy60214: 剛剛Max也是同角度被K一顆 09/01 09:49
516F:推 gn7722: 老虎持續出局如風 09/01 09:49
517F:→ gn7722: 李灝宇太急了,全壘打後應該會比較閃,至少可以看兩顆 09/01 09:50
518F:推 a27783322: 少主最近也是蠻烙賽的 09/01 09:50
519F:推 leo79415: Mck上場投球 09/01 09:50
520F:→ gn7722: 投手連續兩好球搶好球數機率不高 09/01 09:50
521F:推 mikehu: 野手上場 09/01 09:50
522F:→ godoggy: 主審好人 09/01 09:51
523F:推 beauman002: 也不挑戰了趕時間 09/01 09:51
524F:推 evil4422: 不能挑戰啊 09/01 09:51
525F:推 chargebro: 38 09/01 09:52
526F:→ leo79415: 野手投球不能挑戰 主審也會故意放超大好球帶 09/01 09:52
527F:→ beauman002: 對吼野手投球不能挑戰 09/01 09:52
528F:推 marx93521: 倒是投進去啊 09/01 09:52
529F:推 a27783322: 少主下了 09/01 09:52
530F:→ chargebro: 這樣還全壘打 09/01 09:52
531F:推 foxey: 炸野手大壞球 09/01 09:52
532F:→ leo79415: 沒差拉 隨便投投 09/01 09:52
533F:推 evil4422: 刷到了 09/01 09:52
534F:推 CaminoI: McK被炸 他代班的 算了啦 09/01 09:52
535F:推 koi33000: 今天狀況好像刷野手 09/01 09:52
536F:→ marx93521: 被刷一發XDD 09/01 09:52
537F:→ a27783322: 魯閣 09/01 09:52
538F:→ thirtyto: 尻到 09/01 09:52
539F:推 ken159753000: 太狠了 09/01 09:53
540F:推 rong1994: 不講武德 09/01 09:53
541F:推 lsj049: 蝦仁豬心 09/01 09:53
542F:推 setashuyo: 打慢壘大師 09/01 09:53
543F:→ kevin74105: 還好有李的1分 不然真的太慘了.. 09/01 09:53
544F:→ chargebro: 好像在打壘球 09/01 09:53
545F:→ marx93521: 還以為會界外 09/01 09:53
546F:推 evil4422: 這其實不好打欸 09/01 09:53
547F:→ thirtyto: 慢壘 尻全壘打 09/01 09:53
548F:推 AFranklin: 慘 09/01 09:53
549F:推 beauman002: 小便球大師 09/01 09:53
550F:→ leo79415: 沒在練投的人光要丟進好球真的不容易 09/01 09:53
551F:推 lsj049: 灝宇移到二壘 09/01 09:53
552F:推 freeview: 不講武德 09/01 09:54
553F:→ foxey: 這球慢成這樣又大區度 不揮還真的很難進好球帶 09/01 09:54
554F:→ chargebro: 笑死,丟到人 09/01 09:54
555F:噓 huaiken: 老虎最近真的鳥 09/01 09:54
556F:→ CaminoI: 投球來說 羅傑真的比較強 可惜離開了 09/01 09:54
557F:→ leo79415: 靠邀 你剛剛怎麼不丟速球 09/01 09:54
558F:推 jun10: 這樣也能丟人 笑死 09/01 09:54
559F:→ chargebro: 原來有速球 09/01 09:54
560F:推 Marshalkobe2: 偷催 09/01 09:54
561F:→ foxey: 當傳球投就準了www 09/01 09:54
562F:→ beauman002: 認真囉 09/01 09:54
563F:→ thirtyto: 嚇死 09/01 09:55
564F:→ marx93521: 不是這還能砸人的嗎 09/01 09:55
565F:→ CaminoI: Peck也上來了 09/01 09:55
566F:→ Marshalkobe2: 又差點失誤 09/01 09:55
567F:推 gn7722: 小便球也不會投喔? 09/01 09:55
568F:推 as5688ck: 連這樣都可以差點失誤 09/01 09:56
569F:→ marx93521: 靠北老虎傳球怎麼都那麼可怕,這傳二壘還差點噴掉 09/01 09:56
570F:→ gn7722: 較你阿嬤來都投得比你好 09/01 09:56
571F:→ CaminoI: 投球不容易阿 09/01 09:56
572F:→ gn7722: 你當野手傳球不會喔? 09/01 09:56
573F:→ CaminoI: 難得投好結果沒接好 09/01 09:57
574F:推 chargebro: 主審也太嚴格 09/01 09:57
575F:推 supreme123: 不是曲球就是小便球 看起來都一樣啊XDD 09/01 09:57
576F:→ as5688ck: 主審還不想下班嗎? 09/01 09:57
577F:推 beauman002: 偷催 09/01 09:57
578F:→ kevin74105: 超大好球帶 09/01 09:57
579F:推 gn7722: 你就把捕手當成一壘手不就好了 09/01 09:57
580F:推 photoB1N: 欸在幹嘛 09/01 09:57
581F:推 Mryuan: 笑死 09/01 09:58
582F:推 leo79415: 野手通常不丟太多速球是怕受傷啦 都在吃垃圾時間了 09/01 09:58
583F:→ chargebro: 真的當壘球在投 09/01 09:58
584F:→ CaminoI: 他長傳臂力滿好的 但不會投球 09/01 09:58
585F:→ gn7722: 你怎麼傳一壘,你就怎麼傳本壘啊 09/01 09:58
586F:→ CaminoI: 好人 09/01 09:58
587F:推 bluehttp: 老虎球迷應該也炸裂了 打太爛 09/01 09:58
588F:推 jun10: 主審根本亂判 09/01 09:59
589F:→ leo79415: 感覺沒啥機會輪到李 除非對面也派野手上來 09/01 09:59
590F:推 jiaxie: 雙城也可以回禮 09/01 10:00
591F:推 gn7722: 剛查了一下,老虎近7場比賽涼的可怕,幾乎沒人打擊率超過 09/01 10:01
592F:→ gn7722: 2成 09/01 10:01
593F:→ gn7722: 是全隊集體超涼那種沒一個例外 09/01 10:02
594F:推 Jimimy: 話說大物Jenkins首轟是刷野手XDDD 09/01 10:03
595F:推 CaminoI: 真的很涼 09/01 10:04
596F:推 lsj049: MCK投手打擊www 09/01 10:04
597F:推 PPTenshi: 這算是一種破產版大谷嗎 09/01 10:06
598F:→ photoB1N: 88 09/01 10:08
599F:推 leo79415: 又在偷拍落寞的李 09/01 10:09
600F:推 Jimimy: 大家趕著離開 李一個人坐著 09/01 10:10
601F:→ jack86326: 道歉野球 https://youtu.be/hLik-Gj5yPs 09/01 13:32







like.gif 您可能會有興趣的文章
icon.png[問題/行為] 貓晚上進房間會不會有憋尿問題
icon.pngRe: [閒聊] 選了錯誤的女孩成為魔法少女 XDDDDDDDDDD
icon.png[正妹] 瑞典 一張
icon.png[心得] EMS高領長版毛衣.墨小樓MC1002
icon.png[分享] 丹龍隔熱紙GE55+33+22
icon.png[問題] 清洗洗衣機
icon.png[尋物] 窗台下的空間
icon.png[閒聊] 双極の女神1 木魔爵
icon.png[售車] 新竹 1997 march 1297cc 白色 四門
icon.png[討論] 能從照片感受到攝影者心情嗎
icon.png[狂賀] 賀賀賀賀 賀!島村卯月!總選舉NO.1
icon.png[難過] 羨慕白皮膚的女生
icon.png閱讀文章
icon.png[黑特]
icon.png[問題] SBK S1安裝於安全帽位置
icon.png[分享] 舊woo100絕版開箱!!
icon.pngRe: [無言] 關於小包衛生紙
icon.png[開箱] E5-2683V3 RX480Strix 快睿C1 簡單測試
icon.png[心得] 蒼の海賊龍 地獄 執行者16PT
icon.png[售車] 1999年Virage iO 1.8EXi
icon.png[心得] 挑戰33 LV10 獅子座pt solo
icon.png[閒聊] 手把手教你不被桶之新手主購教學
icon.png[分享] Civic Type R 量產版官方照無預警流出
icon.png[售車] Golf 4 2.0 銀色 自排
icon.png[出售] Graco提籃汽座(有底座)2000元誠可議
icon.png[問題] 請問補牙材質掉了還能再補嗎?(台中半年內
icon.png[問題] 44th 單曲 生寫竟然都給重複的啊啊!
icon.png[心得] 華南紅卡/icash 核卡
icon.png[問題] 拔牙矯正這樣正常嗎
icon.png[贈送] 老莫高業 初業 102年版
icon.png[情報] 三大行動支付 本季掀戰火
icon.png[寶寶] 博客來Amos水蠟筆5/1特價五折
icon.pngRe: [心得] 新鮮人一些面試分享
icon.png[心得] 蒼の海賊龍 地獄 麒麟25PT
icon.pngRe: [閒聊] (君の名は。雷慎入) 君名二創漫畫翻譯
icon.pngRe: [閒聊] OGN中場影片:失蹤人口局 (英文字幕)
icon.png[問題] 台灣大哥大4G訊號差
icon.png[出售] [全國]全新千尋侘草LED燈, 水草

請輸入看板名稱,例如:BuyTogether站內搜尋

TOP